CW2274 Weather Reports


time (UTC)temp
C
wind
direction
speed
KPH
gust
KPH
rain 1hr
cm
rain 24hr
cm
rain mn
cm
humidity
%
barometer
mb
20260906093021 26 292 3.2 4.8 0.00 0.00 0.00 45 1014.5
20260906092519 26 292 3.2 4.8 0.00 0.00 0.00 45 1014.4
20260906092014 26 292 3.2 4.8 0.00 0.00 0.00 45 1014.3
20260906091528 27 292 3.2 4.8 0.00 0.00 0.00 45 1014.4
20260906091023 27 292 1.6 4.8 0.00 0.00 0.00 44 1014.4
20260906090518 27 292 1.6 4.8 0.00 0.00 0.00 44 1014.4
20260906090044 26 292 3.2 4.8 0.00 0.00 0.00 45 1014.4
20260906085524 27 292 3.2 4.8 0.00 0.00 0.00 45 1014.4
20260906085023 27 292 1.6 4.8 0.00 0.00 0.00 44 1014.5
20260906084517 27 292 3.2 4.8 0.00 0.00 0.00 43 1014.5
20260906084032 27 292 3.2 4.8 0.00 0.00 0.00 42 1014.6
20260906083523 27 292 1.6 4.8 0.00 0.00 0.00 42 1014.4
20260906083017 27 292 3.2 4.8 0.00 0.00 0.00 42 1014.5
20260906082512 27 292 3.2 4.8 0.00 0.00 0.00 42 1014.4
20260906082026 28 292 3.2 4.8 0.00 0.00 0.00 41 1014.5
20260906081520 28 292 3.2 4.8 0.00 0.00 0.00 41 1014.5
20260906081019 28 292 3.2 4.8 0.00 0.00 0.00 41 1014.6
20260906080514 28 292 1.6 4.8 0.00 0.00 0.00 41 1014.6
20260906080040 28 292 3.2 4.8 0.00 0.00 0.00 41 1014.7
20260906075520 28 291 1.6 6.4 0.00 0.00 0.00 40 1014.6
20260906075015 28 291 3.2 9.7 0.00 0.00 0.00 40 1014.6
20260906074530 28 290 3.2 9.7 0.00 0.00 0.00 40 1014.6
20260906074024 28 290 4.8 6.4 0.00 0.00 0.00 40 1014.8
20260906073523 29 290 3.2 6.4 0.00 0.00 0.00 39 1014.8
20260906073017 29 290 3.2 11.3 0.00 0.00 0.00 39 1014.8
20260906072511 29 291 4.8 11.3 0.00 0.00 0.00 39 1014.7
20260906072026 29 292 3.2 6.4 0.00 0.00 0.00 39 1014.8
20260906071520 29 292 4.8 6.4 0.00 0.00 0.00 40 1014.8
20260906071015 29 293 3.2 8.0 0.00 0.00 0.00 39 1014.8
20260906070529 29 292 4.8 11.3 0.00 0.00 0.00 39 1014.8
20260906070036 29 292 4.8 11.3 0.00 0.00 0.00 40 1014.9
20260906065521 29 287 4.8 11.3 0.00 0.00 0.00 39 1014.7
20260906065016 29 279 6.4 11.3 0.00 0.00 0.00 40 1014.8
20260906064531 29 286 6.4 11.3 0.00 0.00 0.00 40 1014.8
20260906064025 29 280 6.4 11.3 0.00 0.00 0.00 40 1014.9
20260906063519 29 283 6.4 11.3 0.00 0.00 0.00 40 1014.9
20260906063013 29 288 4.8 9.7 0.00 0.00 0.00 39 1014.9
20260906062528 29 288 4.8 11.3 0.00 0.00 0.00 39 1014.9
20260906062026 30 288 4.8 11.3 0.00 0.00 0.00 39 1014.9
20260906061520 30 292 4.8 8.0 0.00 0.00 0.00 39 1014.9
20260906061015 30 294 4.8 11.3 0.00 0.00 0.00 39 1014.9
20260906060529 29 281 4.8 11.3 0.00 0.00 0.00 39 1014.9
20260906060036 30 277 6.4 11.3 0.00 0.00 0.00 39 1014.9
20260906055515 30 291 4.8 11.3 0.00 0.00 0.00 40 1015.0
20260906055029 30 294 3.2 8.0 0.00 0.00 0.00 40 1015.0
20260906054524 30 294 3.2 8.0 0.00 0.00 0.00 40 1015.0
20260906054022 30 295 4.8 8.0 0.00 0.00 0.00 40 1015.1
20260906053515 30 296 3.2 8.0 0.00 0.00 0.00 40 1015.2
20260906053029 30 296 3.2 8.0 0.00 0.00 0.00 40 1015.2
20260906052523 30 295 3.2 8.0 0.00 0.00 0.00 40 1015.2
20260906052017 30 294 3.2 8.0 0.00 0.00 0.00 40 1015.2
20260906051531 30 292 4.8 8.0 0.00 0.00 0.00 40 1015.3
20260906051025 30 293 3.2 8.0 0.00 0.00 0.00 40 1015.3
20260906050523 30 294 4.8 8.0 0.00 0.00 0.00 40 1015.3
20260906050030 30 295 4.8 6.4 0.00 0.00 0.00 40 1015.4
20260906045529 30 296 4.8 6.4 0.00 0.00 0.00 40 1015.3
20260906045024 30 297 3.2 8.0 0.00 0.00 0.00 40 1015.3
20260906044518 30 297 4.8 8.0 0.00 0.00 0.00 41 1015.4
20260906044013 30 323 4.8 8.0 0.00 0.00 0.00 42 1015.3
20260906043528 30 323 1.6 8.0 0.00 0.00 0.00 42 1015.2
20260906043023 30 323 3.2 8.0 0.00 0.00 0.00 42 1015.3
20260906042522 30 325 4.8 8.0 0.00 0.00 0.00 43 1015.3
20260906042016 30 326 3.2 8.0 0.00 0.00 0.00 43 1015.2
20260906041529 30 326 3.2 8.0 0.00 0.00 0.00 44 1015.2
20260906041023 30 326 3.2 6.4 0.00 0.00 0.00 43 1015.1
20260906040518 30 326 4.8 6.4 0.00 0.00 0.00 42 1015.1
20260906040045 30 326 3.2 6.4 0.00 0.00 0.00 42 1015.1
20260906035525 30 326 1.6 4.8 0.00 0.00 0.00 42 1015.1
20260906035023 30 326 3.2 6.4 0.00 0.00 0.00 42 1015.1
20260906034517 30 326 0.0 1.6 0.00 0.00 0.00 42 1015.1
20260906034031 30 326 0.0 3.2 0.00 0.00 0.00 41 1015.1
20260906033525 31 326 0.0 3.2 0.00 0.00 0.00 41 1015.0
20260906033019 31 326 1.6 4.8 0.00 0.00 0.00 40 1014.8
20260906032533 31 326 1.6 4.8 0.00 0.00 0.00 39 1014.8
20260906032027 31 326 1.6 4.8 0.00 0.00 0.00 39 1014.7
20260906031521 31 326 1.6 4.8 0.00 0.00 0.00 39 1014.8
20260906031020 31 326 1.6 4.8 0.00 0.00 0.00 38 1014.6
20260906030514 31 326 1.6 3.2 0.00 0.00 0.00 38 1014.6
20260906030041 32 326 1.6 4.8 0.00 0.00 0.00 38 1014.5
20260906025520 32 326 3.2 4.8 0.00 0.00 0.00 37 1014.4
20260906025014 32 325 3.2 4.8 0.00 0.00 0.00 37 1014.2
20260906024529 32 326 1.6 4.8 0.00 0.00 0.00 37 1014.3
20260906024023 32 326 3.2 6.4 0.00 0.00 0.00 37 1014.3
20260906023521 32 326 1.6 3.2 0.00 0.00 0.00 36 1014.3
20260906023016 32 326 1.6 3.2 0.00 0.00 0.00 36 1014.2
20260906022531 32 327 1.6 4.8 0.00 0.00 0.00 36 1014.1
20260906022026 32 327 1.6 4.8 0.00 0.00 0.00 36 1014.0
20260906021520 32 327 1.6 3.2 0.00 0.00 0.00 35 1014.0
20260906021015 32 327 1.6 4.8 0.00 0.00 0.00 35 1014.1
20260906020529 32 327 1.6 4.8 0.00 0.00 0.00 35 1014.0
20260906020035 32 327 1.6 6.4 0.00 0.00 0.00 35 1014.0
20260906015520 32 347 0.0 6.4 0.00 0.00 0.00 34 1014.0
20260906015014 33 348 1.6 6.4 0.00 0.00 0.00 34 1014.1
20260906014529 33 350 1.6 9.7 0.00 0.00 0.00 34 1014.0
20260906014023 33 351 3.2 9.7 0.00 0.00 0.00 33 1014.0
20260906013518 33 339 3.2 8.0 0.00 0.00 0.00 34 1014.0
20260906013032 33 329 3.2 8.0 0.00 0.00 0.00 34 1013.9
20260906012526 33 331 3.2 8.0 0.00 0.00 0.00 34 1013.9
20260906012025 33 298 3.2 14.5 0.00 0.00 0.00 33 1014.0
20260906011519 33 291 3.2 14.5 0.00 0.00 0.00 33 1014.1
20260906011013 33 296 3.2 11.3 0.00 0.00 0.00 34 1014.0
20260906010528 33 302 3.2 8.0 0.00 0.00 0.00 33 1014.0
20260906010034 34 310 3.2 17.7 0.00 0.00 0.00 33 1014.1
20260906005514 34 282 8.0 17.7 0.00 0.00 0.00 33 1014.1
20260906005028 34 6 4.8 16.1 0.00 0.00 0.00 33 1014.0
20260906004521 34 303 4.8 9.7 0.00 0.00 0.00 33 1013.9
20260906004018 34 339 4.8 12.9 0.00 0.00 0.00 33 1014.0
20260906003533 35 303 4.8 14.5 0.00 0.00 0.00 33 1013.9
20260906003026 35 311 3.2 14.5 0.00 0.00 0.00 33 1014.0
20260906002520 35 290 4.8 14.5 0.00 0.00 0.00 33 1013.9
20260906002014 35 344 3.2 11.3 0.00 0.00 0.00 33 1014.0
20260906001528 35 308 3.2 11.3 0.00 0.00 0.00 33 1013.8
20260906001023 35 344 4.8 12.9 0.00 0.00 0.00 32 1014.0
20260906000521 35 315 4.8 12.9 0.00 0.00 0.00 33 1014.0
20260906000028 35 355 3.2 16.1 0.00 0.00 0.00 33 1013.9
20260905235527 35 310 6.4 16.1 0.00 0.00 0.00 32 1013.9
20260905235021 35 289 4.8 16.1 0.00 0.00 0.00 32 1013.8
20260905234515 35 292 4.8 12.9 0.00 0.00 0.00 33 1013.9
20260905234029 35 282 6.4 12.9 0.00 0.00 0.00 32 1013.8
20260905233523 35 335 3.2 12.9 0.00 0.00 0.00 32 1013.8
20260905233018 36 311 3.2 20.9 0.00 0.00 0.00 32 1013.9
20260905232517 35 337 6.4 17.7 0.00 0.00 0.00 32 1013.9
20260905232031 35 337 3.2 16.1 0.00 0.00 0.00 31 1013.9
20260905231526 36 330 6.4 14.5 0.00 0.00 0.00 31 1013.9
20260905231020 35 331 6.4 16.1 0.00 0.00 0.00 32 1014.1
20260905230514 35 357 3.2 16.1 0.00 0.00 0.00 33 1014.1
20260905230040 36 319 3.2 16.1 0.00 0.00 0.00 32 1014.1
20260905225520 36 280 6.4 16.1 0.00 0.00 0.00 31 1014.1
20260905225019 36 336 4.8 17.7 0.00 0.00 0.00 31 1014.1
20260905224514 36 277 6.4 17.7 0.00 0.00 0.00 32 1014.0
20260905224029 35 335 6.4 11.3 0.00 0.00 0.00 31 1014.2
20260905223523 36 347 4.8 14.5 0.00 0.00 0.00 32 1014.2
20260905223018 36 354 4.8 19.3 0.00 0.00 0.00 32 1014.3
20260905222514 36 280 8.0 19.3 0.00 0.00 0.00 30 1014.2
20260905222029 36 296 4.8 16.1 0.00 0.00 0.00 30 1014.3
20260905221524 36 352 6.4 14.5 0.00 0.00 0.00 31 1014.4
20260905221024 36 298 8.0 14.5 0.00 0.00 0.00 30 1014.5
20260905220520 36 302 4.8 14.5 0.00 0.00 0.00 31 1014.4
20260905220028 36 281 6.4 16.1 0.00 0.00 0.00 31 1014.4
20260905215527 36 9 6.4 16.1 0.00 0.00 0.00 31 1014.5
20260905215023 36 307 4.8 19.3 0.00 0.00 0.00 30 1014.7
20260905214519 36 264 8.0 19.3 0.00 0.00 0.00 30 1014.7
20260905214014 36 4 4.8 16.1 0.00 0.00 0.00 32 1014.8
20260905213513 35 2 3.2 16.1 0.00 0.00 0.00 31 1014.7
20260905213027 36 342 3.2 11.3 0.00 0.00 0.00 31 1014.8
20260905212522 36 298 4.8 11.3 0.00 0.00 0.00 31 1014.8
20260905212017 36 13 4.8 11.3 0.00 0.00 0.00 30 1014.8
20260905211529 36 296 4.8 17.7 0.00 0.00 0.00 31 1014.9
20260905211024 36 284 4.8 17.7 0.00 0.00 0.00 31 1015.0
20260905210518 36 279 6.4 17.7 0.00 0.00 0.00 31 1015.1
20260905210028 35 325 4.8 17.7 0.00 0.00 0.00 31 1015.2
20260905205528 35 13 3.2 14.5 0.00 0.00 0.00 32 1015.3
20260905205022 35 308 6.4 14.5 0.00 0.00 0.00 32 1015.2
20260905204517 35 3 8.0 14.5 0.00 0.00 0.00 32 1015.3
20260905204031 35 16 6.4 14.5 0.00 0.00 0.00 32 1015.3
20260905203526 35 331 3.2 11.3 0.00 0.00 0.00 32 1015.5
20260905203020 36 306 3.2 14.5 0.00 0.00 0.00 32 1015.6
20260905202514 36 287 3.2 14.5 0.00 0.00 0.00 31 1015.8
20260905202032 35 319 4.8 11.3 0.00 0.00 0.00 32 1015.9
20260905201528 35 344 3.2 11.3 0.00 0.00 0.00 33 1015.9
20260905201022 35 260 3.2 12.9 0.00 0.00 0.00 34 1016.0
20260905200517 35 9 6.4 14.5 0.00 0.00 0.00 32 1016.0
20260905200043 35 299 4.8 14.5 0.00 0.00 0.00 33 1016.2
20260905195523 35 310 3.2 9.7 0.00 0.00 0.00 31 1016.2
20260905195017 35 347 1.6 12.9 0.00 0.00 0.00 33 1016.3
20260905194515 35 295 4.8 12.9 0.00 0.00 0.00 33 1016.4
20260905194029 35 287 3.2 12.9 0.00 0.00 0.00 33 1016.4
20260905193523 35 286 6.4 14.5 0.00 0.00 0.00 33 1016.5
20260905193017 35 7 6.4 14.5 0.00 0.00 0.00 32 1016.4
20260905192532 35 13 3.2 11.3 0.00 0.00 0.00 32 1016.5
20260905192026 35 338 3.2 9.7 0.00 0.00 0.00 33 1016.6
20260905191520 35 359 3.2 14.5 0.00 0.00 0.00 33 1016.6
20260905191015 34 258 4.8 14.5 0.00 0.00 0.00 35 1016.7
20260905190513 34 58 4.8 8.0 0.00 0.00 0.00 33 1016.8
20260905190040 34 308 1.6 4.8 0.00 0.00 0.00 34 1016.9
20260905185520 34 303 3.2 11.3 0.00 0.00 0.00 33 1017.1
20260905185014 35 300 3.2 11.3 0.00 0.00 0.00 34 1017.1
20260905184529 33 360 4.8 11.3 0.00 0.00 0.00 34 1017.1
20260905184023 34 23 3.2 11.3 0.00 0.00 0.00 34 1017.2
20260905183518 35 21 3.2 11.3 0.00 0.00 0.00 32 1017.3
20260905183016 34 299 4.8 11.3 0.00 0.00 0.00 34 1017.3
20260905182531 34 287 4.8 14.5 0.00 0.00 0.00 35 1017.3
20260905182027 33 356 6.4 16.1 0.00 0.00 0.00 35 1017.4
20260905181521 33 360 8.0 16.1 0.00 0.00 0.00 36 1017.5
20260905181018 33 305 3.2 14.5 0.00 0.00 0.00 35 1017.5
20260905180514 34 342 3.2 14.5 0.00 0.00 0.00 35 1017.5
20260905180040 34 290 3.2 12.9 0.00 0.00 0.00 36 1017.5
20260905175521 33 291 6.4 12.9 0.00 0.00 0.00 35 1017.6
20260905175020 33 355 4.8 11.3 0.00 0.00 0.00 36 1017.5
20260905174516 33 336 4.8 11.3 0.00 0.00 0.00 37 1017.5
20260905174031 34 352 3.2 11.3 0.00 0.00 0.00 36 1017.7
20260905173526 33 286 3.2 11.3 0.00 0.00 0.00 38 1017.6
20260905173022 34 334 1.6 4.8 0.00 0.00 0.00 38 1017.7
20260905172517 33 335 3.2 6.4 0.00 0.00 0.00 38 1017.6
20260905172013 33 294 1.6 12.9 0.00 0.00 0.00 41 1017.7
20260905171513 32 284 3.2 12.9 0.00 0.00 0.00 39 1017.9
20260905171029 32 2 1.6 6.4 0.00 0.00 0.00 42 1017.8
20260905170525 31 2 1.6 6.4 0.00 0.00 0.00 43 1017.8
20260905170032 32 24 3.2 6.4 0.00 0.00 0.00 44 1017.8
20260905165513 32 54 3.2 6.4 0.00 0.00 0.00 45 1018.0
20260905165028 31 55 3.2 4.8 0.00 0.00 0.00 47 1017.9
20260905164524 31 56 3.2 8.0 0.00 0.00 0.00 46 1017.9
20260905164024 30 58 3.2 8.0 0.00 0.00 0.00 47 1017.9
20260905163520 30 61 4.8 9.7 0.00 0.00 0.00 49 1017.7
20260905163014 31 62 3.2 6.4 0.00 0.00 0.00 49 1017.8
20260905162529 30 63 3.2 6.4 0.00 0.00 0.00 52 1017.8
20260905162025 30 63 3.2 4.8 0.00 0.00 0.00 52 1017.9
20260905161521 31 62 1.6 3.2 0.00 0.00 0.00 50 1017.9
20260905161017 30 63 1.6 4.8 0.00 0.00 0.00 53 1017.9
20260905160516 30 63 1.6 4.8 0.00 0.00 0.00 53 1017.9
20260905160044 29 63 1.6 4.8 0.00 0.00 0.00 53 1018.0
20260905155525 29 63 3.2 4.8 0.00 0.00 0.00 52 1018.0
20260905155021 28 63 3.2 4.8 0.00 0.00 0.00 57 1017.9
20260905154518 28 62 1.6 4.8 0.00 0.00 0.00 57 1017.9
20260905154013 28 62 1.6 4.8 0.00 0.00 0.00 59 1017.9
20260905153529 28 63 1.6 4.8 0.00 0.00 0.00 60 1017.9
20260905153024 28 62 1.6 6.4 0.00 0.00 0.00 59 1018.0
20260905152523 28 63 1.6 6.4 0.00 0.00 0.00 61 1018.0
20260905152019 27 61 3.2 4.8 0.00 0.00 0.00 61 1018.0
20260905151515 28 61 1.6 4.8 0.00 0.00 0.00 61 1018.0
20260905151031 27 61 1.6 6.4 0.00 0.00 0.00 63 1017.9
20260905150526 27 61 1.6 9.7 0.00 0.00 0.00 64 1017.9
20260905150032 26 62 3.2 6.4 0.00 0.00 0.00 64 1017.9
20260905145512 26 62 3.2 9.7 0.00 0.00 0.00 65 1017.8
20260905145031 26 61 3.2 9.7 0.00 0.00 0.00 66 1017.8
20260905144526 26 69 4.8 9.7 0.00 0.00 0.00 64 1017.8
20260905144020 26 68 3.2 9.7 0.00 0.00 0.00 67 1017.9
20260905143516 26 68 4.8 9.7 0.00 0.00 0.00 66 1017.8
20260905143012 26 68 3.2 4.8 0.00 0.00 0.00 66 1017.8
20260905142527 25 68 1.6 6.4 0.00 0.00 0.00 67 1017.7
20260905142023 25 67 3.2 8.0 0.00 0.00 0.00 68 1017.6
20260905141522 25 56 4.8 8.0 0.00 0.00 0.00 69 1017.5
20260905141017 25 55 4.8 8.0 0.00 0.00 0.00 69 1017.5
20260905140531 25 54 4.8 6.4 0.00 0.00 0.00 70 1017.3
20260905140039 25 54 3.2 4.8 0.00 0.00 0.00 69 1017.5
20260905135519 25 54 1.6 3.2 0.00 0.00 0.00 70 1017.5
20260905135014 24 54 1.6 3.2 0.00 0.00 0.00 71 1017.3
20260905134529 24 54 1.6 4.8 0.00 0.00 0.00 71 1017.2
20260905134024 24 54 1.6 4.8 0.00 0.00 0.00 71 1017.1
20260905133523 24 54 1.6 3.2 0.00 0.00 0.00 71 1017.2
20260905132514 23 54 0.0 3.2 0.00 0.00 0.00 74 1016.9
20260905132031 23 54 0.0 1.6 0.00 0.00 0.00 74 1016.9
20260905131526 23 54 0.0 3.2 0.00 0.00 0.00 75 1016.8
20260905131021 23 54 1.6 3.2 0.00 0.00 0.00 74 1016.7
20260905130518 23 54 1.6 3.2 0.00 0.00 0.00 74 1016.6
20260905130029 23 54 1.6 3.2 0.00 0.00 0.00 74 1016.6
20260905125531 23 54 1.6 3.2 0.00 0.00 0.00 73 1016.5
20260905125026 23 54 1.6 3.2 0.00 0.00 0.00 74 1016.4
20260905124521 23 54 0.0 1.6 0.00 0.00 0.00 73 1016.5
20260905124017 23 54 0.0 3.2 0.00 0.00 0.00 73 1016.4
20260905123531 23 54 1.6 3.2 0.00 0.00 0.00 74 1016.4
20260905123028 23 54 0.0 3.2 0.00 0.00 0.00 72 1016.5
20260905122527 23 54 0.0 3.2 0.00 0.00 0.00 72 1016.4
20260905122022 23 54 1.6 3.2 0.00 0.00 0.00 73 1016.3
20260905121517 23 54 1.6 3.2 0.00 0.00 0.00 72 1016.3
20260905121013 23 54 0.0 1.6 0.00 0.00 0.00 72 1016.3
20260905120528 23 54 0.0 3.2 0.00 0.00 0.00 72 1016.3
20260905120035 23 54 0.0 4.8 0.00 0.00 0.00 71 1016.3
20260905115515 23 54 1.6 4.8 0.00 0.00 0.00 70 1016.2
20260905115014 23 54 1.6 3.2 0.00 0.00 0.00 70 1016.3
20260905114530 23 54 0.0 3.2 0.00 0.00 0.00 70 1016.2
20260905114025 23 54 1.6 3.2 0.00 0.00 0.00 70 1016.3
20260905113522 23 54 1.6 3.2 0.00 0.00 0.00 71 1016.2
20260905113017 23 54 1.6 4.8 0.00 0.00 0.00 71 1016.3
20260905112513 24 54 1.6 4.8 0.00 0.00 0.00 70 1016.2
20260905112028 24 54 1.6 4.8 0.00 0.00 0.00 69 1016.2
20260905111525 24 54 1.6 4.8 0.00 0.00 0.00 69 1016.2
20260905111025 24 54 1.6 4.8 0.00 0.00 0.00 69 1016.3
20260905110521 24 54 3.2 6.4 0.00 0.00 0.00 69 1016.3
20260905110029 24 54 4.8 6.4 0.00 0.00 0.00 68 1016.2
20260905105529 24 54 3.2 4.8 0.00 0.00 0.00 69 1016.3
20260905105025 24 54 1.6 3.2 0.00 0.00 0.00 69 1016.2
20260905104521 24 54 1.6 3.2 0.00 0.00 0.00 69 1016.3
20260905104016 24 54 1.6 3.2 0.00 0.00 0.00 68 1016.2
20260905103515 24 54 1.6 3.2 0.00 0.00 0.00 68 1016.3
20260905103030 24 54 0.0 1.6 0.00 0.00 0.00 69 1016.2
20260905102526 24 54 0.0 3.2 0.00 0.00 0.00 68 1016.2
20260905102022 25 54 0.0 3.2 0.00 0.00 0.00 67 1016.3
20260905101517 25 54 1.6 3.2 0.00 0.00 0.00 67 1016.3
20260905101031 25 54 1.6 3.2 0.00 0.00 0.00 67 1016.2
20260905100527 25 54 1.6 3.2 0.00 0.00 0.00 67 1016.1
20260905100039 25 54 0.0 1.6 0.00 0.00 0.00 67 1016.0
20260905095519 25 54 0.0 1.6 0.00 0.00 0.00 67 1016.2
20260905095015 25 54 0.0 1.6 0.00 0.00 0.00 67 1016.1
20260905094529 25 54 0.0 1.6 0.00 0.00 0.00 67 1016.2
20260905094023 25 54 0.0 3.2 0.00 0.00 0.00 66 1016.2
20260905093517 25 54 0.0 3.2 0.00 0.00 0.00 66 1016.2